Regional Weather Roundup
Issued by NWS Upton, NY

Home | Current Version | Previous Version | Text Only | Print | Product List | Glossary On
Versions: 1 2 3 4 5 6 7 8 9 10 11 12 13 14 15 16 17 18 19 20 21 22 23 24 25 26 27 28 29 30 31 32 33 34 35 36 37 38 39 40 41 42 43 44 45 46 47 48 49 50
000
ASUS41 KOKX 250005
RWROKX

Regional Weather Roundup
National Weather Service New York NY
700 PM EST SAT FEB 24 2018

Note: "FAIR" indicates few or no clouds below 12,000 feet with no
significant weather and/or obstructions to visibility.

NYZ071-072-176-178-NJZ106-104-250100-
New York City Metro Area

CITY           SKY/WX    TMP DP  RH WIND       PRES   REMARKS
Central Park   CLOUDY    47  44  90 N5        30.20S
Bronx Bot Gard   N/A     45  43  93 N3        30.17S
Bronx Lehman C   N/A     46  43  87 N1          N/A
LaGuardia Arpt CLOUDY    47  42  83 NE5       30.18R
Queens College   N/A     46  43  87 N3          N/A
Kennedy Intl   CLOUDY    47  45  93 NE6       30.19R
Breezy Point     N/A     46 N/A N/A N5          N/A
Brooklyn Coll    N/A     48  43  81 NE3         N/A
Staten Island    N/A     46  41  81 N2          N/A
Newark/Liberty CLOUDY    47  42  83 N6        30.18R
Teterboro      DRIZZLE   47  43  86 CALM      30.17R
$$

NYZ177-179-078>081-250100-
Long Island New York

CITY           SKY/WX    TMP DP  RH WIND       PRES   REMARKS
Jones Beach      N/A     46 N/A N/A NE8         N/A
Wantagh          N/A     46  45  93 NE6         N/A
Hempstead        N/A     46  45  93 E3        30.20F
Matinecock Pt    N/A     45 N/A N/A SE3         N/A
Farmingdale    CLOUDY    46  44  93 E5        30.17F
MacArthur/ISP  CLOUDY    46  45  96 NE6       30.17S
Stony Brook U    N/A     45  43  93 SE3         N/A
Shirley        LGT RAIN  46  45  96 CALM      30.19S
Mt Sinai Harb    N/A     43 N/A N/A MISG        N/A
Westhampton    LGT RAIN  45  44  97 CALM      30.21R
East Hampton   DRIZZLE   43  42  95 N3        30.19S
Southold         N/A     43  43 100 CALM        N/A
Montauk          N/A     44  42  93 CALM      30.19S
$$

NYZ052-065-067-250100-
Hudson Valley

CITY           SKY/WX    TMP DP  RH WIND       PRES   REMARKS
White Plains   LGT RAIN  45  43  93 CALM      30.16S FOG
Larchmont Harb   N/A     43 N/A N/A E1          N/A
Croton On Huds   N/A     45 N/A N/A MISG        N/A
Somers           N/A     43  41  93 NE3         N/A
Brewster         N/A     39  39 100 N3          N/A
Newburgh       NOT AVBL
Montgomery     LGT RAIN  42  40  92 NE6       30.15S
Otisville        N/A     39  39 100 E1          N/A
Warwick          N/A     41  41 100 NW1         N/A
Suffern          N/A     43  41  93 CALM        N/A
Poughkeepsie   CLOUDY    41  38  89 CALM      30.17S
Albany         CLOUDY    39  29  67 N3        30.19F
$$

NJZ001-105-106-008-010-013-015-019>022-104-250100-
New Jersey

CITY           SKY/WX    TMP DP  RH WIND       PRES   REMARKS
Newark/Liberty CLOUDY    47  42  83 N6        30.18R
Teterboro      DRIZZLE   47  43  86 CALM      30.17R
Caldwell       LGT RAIN  44  43  96 CALM      30.19R
Somerville     CLOUDY    45  44  97 CALM      30.17R
Linden         CLOUDY    47  38  72 CALM      30.18R
Perth Amboy      N/A     46 N/A N/A NE3         N/A
Sussex         LGT RAIN  43  41  93 CALM      30.17R
Andover          N/A     42  42 100 CALM      30.17R
Trenton        CLOUDY    47  44  90 NE7       30.17R
Millville      CLOUDY    50  45  83 NE7       30.15F
Atlantic City  MOCLDY    50  47  89 NE3       30.17F
Wrightstown    CLOUDY    47  44  91 E8        30.14R
Toms River     CLOUDY    47  44  90 NE7       30.19R
Belmar         CLOUDY    47  42  83 CALM      30.19R
$$

PAZ047>061-062-071-250100-
Eastern Pennsylvania

CITY           SKY/WX    TMP DP  RH WIND       PRES   REMARKS
Philadelphia   CLOUDY    48  45  89 NE9       30.17F
Allentown      LGT RAIN  47  43  86 CALM      30.19R FOG
Scranton       LGT RAIN  41  40  96 N8        30.16R FOG
$$

CTZ002-004>006-009-010-012-RIZ004-006-007-MAZ004-011-015-250100-
Southern New England

 In CT

CITY           SKY/WX    TMP DP  RH WIND       PRES   REMARKS
Bradley Intl   CLOUDY    42  39  89 CALM      30.19R
Hartford       CLOUDY    43  40  89 CALM      30.19S
Danbury        LGT RAIN  42  40  92 NE6       30.19R
Wtrbury/Oxford LGT RAIN  40  39  97 N6        30.18S
Norwalk Harbor   N/A     43 N/A N/A NE8         N/A
Bridgeport     LGT RAIN  46  41  82 N8        30.19R
Meriden        LGT RAIN  42  38  85 NW3       30.19F
New Haven      LGT RAIN  46  43  89 N6        30.18F
Chester        LGT RAIN  43  41  93 N5        30.18F
Groton         LGT RAIN  45  39  79 N8        30.18R
Willimantic    LGT RAIN  43  40  89 CALM      30.20R

 In RI

CITY           SKY/WX    TMP DP  RH WIND       PRES   REMARKS
Providence     LGT RAIN  44  41  89 W7        30.20R
Block Island   LGT RAIN  43  41  93 N5        30.18S
Westerly       LGT RAIN  45  43  93 N7        30.19R FOG

In MA

CITY           SKY/WX    TMP DP  RH WIND       PRES   REMARKS
Boston         CLOUDY    44  37  76 E6        30.19R
Worcester      CLOUDY    42  32  67 W6        30.17R
Westfield      CLOUDY    43  33  68 CALM      30.17S
Provincetown   FAIR      42  40  92 CALM      30.20R
Nantucket      RAIN      42  42 100 SW3       30.18S FOG
$$

ANZ330-335-338-340-345-350-353-355-250100-
Coastal Marine Observations


STATION/POSITION TIME  SKY/WX   TEMP    WIND        PRES    VSBY  WAVE
                                AIR SEA DIR/SP/G                  HT/PER
                 (UTC)          (F)     (DEG/KT/KT) (MB)    (MI)  (FT/S)
NY Harb Entrance 2350            43 39   20/  6/  8 1022.0          2/ 9
20 S Fire Island 2350            45 43   60/  4/  6 1022.0          2/10
23 SSW Montauk P 2350            44 43  350/ 12/ 14 1022.1          2/ 8
15 E Barnegat Li 2330               42                N/A           2/ 9
Hudson Canyon    2350            46 46  360/  6/  8 1022.3          2/ 9
Kings Point      2330            44 39   50/  2/  3 1022.5
Execution Rocks  NOT AVBL
Western LI Sound NOT AVBL
Central LI Sound 2315            42      40/  4/  4   N/A           0
Robbins Reef     2330            47      30/  5/  6 1022.1
$$


>>>>>>>>>>>>>>>>>>>>>>>>>>>> KEY <<<<<<<<<<<<<<<<<<<<<<<<<<<
>                                                          <
>     SKY/WX - Sky Condition/Present Weather               <
>     TMP    - Temperature in Fahrenheit                   <
>     DP     - Dew Point in Fahrenheit                     <
>     RH     - Relative Humidity in Percent                <
>     WIND   - Direction (from) and Speed in MPH           <
>     PRES   - Mean Sea Level Pressure (inches of Hg)      <
>     WCI    - Wind Chill Index                            <
>     VSB    - Visibility in Miles                         <
>     HX     - Heat Index                                  <
>     TC     - Temperature in Celsius                      <
>     VRB    - Varibale Wind Direction                     <
>                                                          <
>>>>>>>>>>>>>>>>>>>>>>>>>>>> KEY <<<<<<<<<<<<<<<<<<<<<<<<<<<



USA.gov is the U.S. government's official web portal to all federal, state and local government web resources and services.